AUL554 UUDL-ULMK

Flight info

Callsign AUL554
Flight time N/A
Altitude 36000
Route MAGOK2M MAGOK T617 GOBOM T747 ARMAD ARMAD4B
Aircraft B738/M-SDE2E3FGHIRWXY/LB1

Departure

Time 2026-04-26 16:03
Airport Golden Ring Yaroslavl International Airport (UUDL)

Arrival

Time N/A
Airport Kirovsk-Apatity Airport (ULMK)
Time Latitude Longitude Altitude Speed Heading
2026-04-26 15:42 57.56312 40.17397 298 ft 0 kts
2026-04-26 15:59 57.56314 40.17397 298 ft 0 kts
2026-04-26 16:00 57.56324 40.17399 298 ft 1 kts 356°
2026-04-26 16:00 57.56354 40.17410 298 ft 11 kts 41°
2026-04-26 16:00 57.56401 40.17556 297 ft 12 kts 62°
2026-04-26 16:00 57.56448 40.17668 297 ft 8 kts
2026-04-26 16:01 57.56475 40.17658 297 ft 0 kts 339°
2026-04-26 16:01 57.56481 40.17653 297 ft 1 kts 337°
2026-04-26 16:01 57.56499 40.17638 298 ft 6 kts 335°
2026-04-26 16:01 57.56540 40.17547 297 ft 10 kts 268°
2026-04-26 16:02 57.56526 40.17476 298 ft 0 kts 245°
2026-04-26 16:02 57.56523 40.17465 298 ft 8 kts 245°
2026-04-26 16:02 57.56373 40.16901 298 ft 88 kts 243°
2026-04-26 16:02 57.56157 40.16093 295 ft 132 kts 243°
2026-04-26 16:03 57.55534 40.13747 732 ft 172 kts 243°
2026-04-26 16:03 57.54978 40.11790 1359 ft 190 kts 239°
2026-04-26 16:03 57.54328 40.09618 2162 ft 196 kts 238°
2026-04-26 16:03 57.53725 40.07481 2897 ft 197 kts 242°
2026-04-26 16:04 57.53166 40.05064 3415 ft 211 kts 241°
2026-04-26 16:04 57.52433 40.02657 3937 ft 220 kts 223°
2026-04-26 16:04 57.51196 40.01102 4462 ft 226 kts 200°
2026-04-26 16:04 57.49698 40.00137 5007 ft 236 kts 186°
2026-04-26 16:05 57.48089 40.00328 5834 ft 235 kts 161°
2026-04-26 16:05 57.46671 40.01595 6753 ft 233 kts 148°
2026-04-26 16:05 57.45509 40.03614 7542 ft 239 kts 126°
2026-04-26 16:05 57.44904 40.06438 8312 ft 248 kts 105°
2026-04-26 16:06 57.44832 40.09612 9046 ft 259 kts 86°
2026-04-26 16:06 57.45484 40.12743 9745 ft 275 kts 59°
2026-04-26 16:06 57.46841 40.15185 10436 ft 286 kts 40°
2026-04-26 16:06 57.48459 40.17340 11091 ft 292 kts 38°
2026-04-26 16:07 57.50090 40.19485 11737 ft 298 kts 39°
2026-04-26 16:07 57.51683 40.21600 12345 ft 303 kts 39°
2026-04-26 16:07 57.53373 40.23859 12960 ft 308 kts 38°
2026-04-26 16:07 57.54830 40.25811 13509 ft 312 kts 38°
2026-04-26 16:08 57.55810 40.27126 13820 ft 316 kts 38°